Regional Weather Roundup
Issued by NWS

Home | Current Version | Previous Version | Text Only | Print | Product List | Glossary Off
Versions: 1 2 3 4 5 6 7 8 9 10 11 12 13 14 15 16 17 18 19 20 21 22 23 24 25 26 27 28 29 30 31 32 33 34 35 36 37 38 39 40 41 42 43 44 45 46 47 48 49 50

000
ASUS43 KLOT 030310
RWRIL

ILLINOIS REGIONAL WEATHER ROUNDUP
NATIONAL WEATHER SERVICE CHICAGO/ROMEOVILLE IL
900 PM CST MON MAR 02 2015

NOTE: "FAIR" INDICATES FEW OR NO CLOUDS BELOW 12,000 FEET WITH NO
SIGNIFICANT WEATHER AND/OR OBSTRUCTIONS TO VISIBILITY.

* THESE STATIONS ARE NOT UNDER NWS QUALITY CONTROL. THEY ALSO MAY NOT
  REPORT WEATHER SUCH AS PRECIPITATION OR FOG.

ILZ001-002-007-009-015-016-024-030400-
NORTHWEST ILLINOIS

CITY           SKY/WX    TMP DP  RH WIND       PRES   REMARKS
MOLINE         CLOUDY    27  18  69 SE8       30.26F WCI  19
STERLING*      CLOUDY    25  18  74 SE7       30.28F WCI  17
SAVANNA*       CLOUDY    26  19  75 SE7       30.28F WCI  19
$$

ILZ003-004-008-010-011-017-018-030400-
NORTH CENTRAL ILLINOIS

CITY           SKY/WX    TMP DP  RH WIND       PRES   REMARKS
ROCKFORD       CLOUDY    24  16  71 S9        30.31F WCI  14
FREEPORT*      CLOUDY    24  18  77 SE7       30.30F WCI  16
ROCHELLE*      CLOUDY    23  19  83 S9        30.30F WCI  13
DE KALB*       CLOUDY    22  16  77 S8        30.30F WCI  13
PERU*          CLOUDY    26  19  77 SE8       30.29F WCI  17
$$

ILZ005-006-012>014-019>023-030400-
NORTHEAST ILLINOIS

CITY           SKY/WX    TMP DP  RH WIND       PRES   REMARKS
CHICAGO-OHARE  CLOUDY    26  15  63 S9        30.31F WCI  17
CHICAGO-MIDWAY CLOUDY    28  15  58 S8        30.34F WCI  20
AURORA         CLOUDY    24  15  68 S7        30.31F WCI  16
LANSING*       CLOUDY    26  17  71 S7        30.36F WCI  18
JOLIET*        CLOUDY    25  15  67 S5        30.33F WCI  19
WAUKEGAN       CLOUDY    26  20  77 S7        30.31F WCI  18
DUPAGE AIRPORT CLOUDY    25  15  66 S9        30.30F WCI  15
KANKAKEE*      CLOUDY    24  20  82 E7        30.34F WCI  16
WHEELING       CLOUDY    27  15  61 SW8       30.33F WCI  19
MORRIS*        CLOUDY    24  19  83 SE5       30.31F WCI  18
ROMEOVILLE*    CLOUDY    25  16  67 S8        30.32F WCI  16
NORTHERLY ISL    N/A     27  14  58 S12         N/A  WCI  17
$$

LMZ740>746-030400-
SOUTHERN LAKE MICHIGAN

STATION/POSITION SKY/WX   TEMP    WIND        PRES    VSBY  WAVE
                          AIR SEA DIR/SP/G                  HT/PER
                          (F)     (DEG/KT/KT) (MB)    (MI)  (FT/S)
WAUKEGAN HARBOR            28     200/ 22/ 37   N/A
HARRISON CRIB              27     190/ 17/ 21   N/A
BURNHAM HARBOR             27     200/ 11/ 13   N/A
CALUMET HARBOR                    170/  6/  8   N/A
MICHIGAN CITY              26     160/  7/ 10   N/A
$$

ILZ025>027-034>036-040-047-049-050-058-095>099-030400-
WEST-CENTRAL ILLINOIS

CITY           SKY/WX    TMP DP  RH WIND       PRES   REMARKS
QUINCY         CLOUDY    29  19  66 SE9       30.24F WCI  20
GALESBURG*     CLOUDY    26  20  77 SE6       30.25S WCI  20
MACOMB*        CLOUDY    27  21  80 SE10      30.28S WCI  17
JACKSONVILLE*  CLOUDY    28  20  71 E10       30.27F WCI  19
PITTSFIELD*    CLOUDY    30  21  69 SE9       30.25F WCI  22
$$

ILZ028>032-037-038-041>044-048-051>054-059>061-030400-
CENTRAL ILLINOIS

CITY           SKY/WX    TMP DP  RH WIND       PRES   REMARKS
PONTIAC        CLOUDY    22  18  87 E6        30.31F WCI  14
BLOOMINGTON    CLOUDY    21  17  84 SE7       30.29F WCI  12
DECATUR        CLOUDY    22  17  81 E9        30.28F WCI  12
PEORIA         CLOUDY    28  18  66 SE7       30.28F WCI  21
LACON*         MOCLDY    25  18  76 SE8       30.29F WCI  16
LINCOLN*       CLOUDY    25  19  80 SE5       30.32S WCI  19
SPRINGFIELD    CLOUDY    28  18  66 SE9       30.29F WCI  19
TAYLORVILLE    CLOUDY    27  19  74 SE6       30.29F WCI  20
$$

ILZ033-039-045-046-055>057-062-063-030400-
EAST-CENTRAL ILLINOIS

CITY           SKY/WX    TMP DP  RH WIND       PRES   REMARKS
CHAMPAIGN      CLOUDY    21  16  81 E9        30.30F WCI  11
DANVILLE*      CLOUDY    19  14  81 E5        30.31F WCI  12
RANTOUL*       CLOUDY    21  17  85 E6        30.31F WCI  14
MATTOON        CLOUDY    24  16  71 E6        30.29F WCI  17
PARIS*         CLOUDY    22  17  83 E5        30.33F WCI  15
$$

ILZ079-100>102-030400-
SOUTHWEST ILLINOIS

CITY           SKY/WX    TMP DP  RH WIND       PRES   REMARKS
ALTON          CLOUDY    30  16  55 E6        30.29F WCI  24
BELLEVILLE     CLOUDY    30  21  69 E6        30.27F WCI  24
CAHOKIA*       CLOUDY    32  21  64 E7        30.28F WCI  26
SPARTA*        CLOUDY    30  21  69 E7        30.29F WCI  23
$$

ILZ064>066-069>071-074>076-080>082-084>086-088>090-092>094-030400-
SOUTH-CENTRAL ILLINOIS

CITY           SKY/WX    TMP DP  RH WIND       PRES   REMARKS
CARBONDALE     CLOUDY    33  22  63 E7        30.29F WCI  27
CAIRO*         CLOUDY    38  24  57 NE7       30.29S WCI  33
EFFINGHAM*     CLOUDY    26  15  62 E5        30.32F WCI  20
MARION         CLOUDY    34  23  64 E6        30.30F WCI  29
MT. VERNON     MOCLDY    28  16  59 E6        30.30F WCI  22
CENTRALIA*     MOCLDY    28  17  63 E3        30.29F
SALEM*         MOCLDY    30  20  65 E5        30.29F WCI  25
METROPOLIS*    CLOUDY    36  25  65 E3        30.27F
$$

ILZ067-068-072-073-078-083-087-091-030400-
SOUTHEAST ILLINOIS

CITY           SKY/WX    TMP DP  RH WIND       PRES   REMARKS
LAWRENCEVILLE  CLOUDY    27  19  72 E5        30.34F WCI  22
FLORA*         CLOUDY    25  19  80 E3        30.32F
FAIRFIELD*     MOCLDY    28  19  67 NE5       30.30F WCI  23
HARRISBURG*    PTCLDY    31  24  77 NE5       30.32F WCI  26
ROBINSON*      CLOUDY    26  22  85 CALM      30.34F
CARMI*         CLOUDY    31  27  85 NE6       30.32F WCI  25
$$

ABBREVIATIONS USED IN REMARKS
   TC - TEMPERATURE IN CELSIUS
  WCI - WIND CHILL INDEX
   HX - HEAT INDEX
  VSB - VISIBILITY
$$



USA.gov is the U.S. government's official web portal to all federal, state and local government web resources and services.